DateTimeUTC,F1_A11,F1_S11,BsB_S11,BsG_S11,BsR_S11,BbsB_S11,BbsG_S11,BbsR_S11,BaB_A11,BaG_A11,BaR_A11,Tu_S11,T_S11,Uu_S11,U_S11,P_S11,T1_A11
2021-08-13T10:00:00Z,00000200,20000000,,,,,,,0000.31,0000.19,0000.25,18.2,24.9,05.9,03.9,0674.6,30.9
2021-08-13T10:01:00Z,00000200,20000000,,,,,,,-000.10,-000.26,-000.19,18.2,24.9,05.9,03.9,0674.6,30.8
2021-08-13T10:02:00Z,00000200,20000000,,,,,,,-000.24,-000.05,-000.15,18.2,24.9,05.9,03.9,0674.6,30.9
2021-08-13T10:03:00Z,00000200,60000000,,,,,,,0000.58,0000.34,0000.48,18.2,24.9,05.9,03.9,0674.6,30.9
2021-08-13T10:04:00Z,00000200,40000000,0003.70,0002.31,0001.29,0000.71,0000.15,0000.41,0000.68,0000.92,0000.95,18.3,24.7,05.9,04.0,0675.5,30.8
2021-08-13T10:05:00Z,00000200,00000000,0002.99,0002.14,0001.57,0000.56,0000.32,0000.39,0000.66,0000.71,0000.13,18.4,24.7,06.2,04.2,0675.6,30.8
2021-08-13T10:06:00Z,00000200,00000000,0002.58,0002.05,0001.48,0000.54,0000.17,0000.21,0000.60,0000.48,0000.51,18.4,24.7,06.1,04.1,0675.6,30.8
2021-08-13T10:07:00Z,00000200,00000000,0002.41,0002.21,0001.24,0000.87,0000.10,0000.01,0001.01,0000.70,0000.42,18.4,24.7,06.2,04.2,0675.6,30.8
2021-08-13T10:08:00Z,00000200,00000000,0002.49,0002.29,0001.70,0000.42,0000.29,0000.03,0000.27,0000.60,0000.57,18.3,24.7,06.2,04.2,0675.6,30.8
2021-08-13T10:09:00Z,00000200,00000000,0002.72,0001.92,0001.21,0000.82,0000.62,0000.23,0000.77,0000.65,0000.56,18.3,24.6,06.2,04.2,0675.6,30.8
2021-08-13T10:10:00Z,00000200,00000000,0002.72,0002.68,0001.63,0000.47,0000.05,0000.23,0000.49,0000.25,0000.23,18.3,24.6,06.2,04.2,0675.6,30.8
2021-08-13T10:11:00Z,00000200,00000000,0003.68,0002.19,0001.57,0000.53,0000.29,0000.06,0001.05,0001.38,0000.90,18.3,24.6,06.3,04.2,0675.6,30.8
2021-08-13T10:12:00Z,00000200,00000000,0004.09,0002.02,0001.34,0000.70,0000.46,0000.29,0000.94,0000.30,0000.31,18.3,24.6,06.3,04.3,0675.6,30.8
2021-08-13T10:13:00Z,00000200,00000000,0002.79,0002.00,0001.24,0000.66,0000.32,0000.32,0000.21,0000.59,0000.41,18.3,24.6,06.3,04.3,0675.6,30.8
2021-08-13T10:14:00Z,00000200,00000000,0002.91,0002.26,0001.43,0000.85,0000.58,0000.49,0000.78,0000.52,0000.75,18.4,24.6,06.3,04.3,0675.5,30.8
2021-08-13T10:15:00Z,00000200,00000000,0002.64,0002.07,0001.28,0000.52,0000.54,0000.46,0000.87,0001.01,0000.46,18.4,24.6,06.4,04.4,0675.6,30.8
2021-08-13T10:16:00Z,00000200,00000000,0002.94,0002.23,0001.40,0000.88,0000.54,0000.09,0000.34,0000.49,0000.35,18.4,24.6,06.4,04.4,0675.5,30.9
2021-08-13T10:17:00Z,00000200,00000000,0002.91,0002.35,0001.01,0001.24,0000.16,0000.14,0000.71,0000.74,0000.52,18.4,24.6,06.4,04.4,0675.6,30.8
2021-08-13T10:18:00Z,00000200,00000000,0002.82,0002.11,0001.29,0000.40,0000.06,0000.44,0001.17,0000.45,0000.42,18.4,24.6,06.4,04.4,0675.6,30.8
2021-08-13T10:19:00Z,00000200,00000000,0003.09,0002.25,0001.57,0000.30,0000.27,0000.13,0000.54,0000.85,0000.47,18.3,24.6,06.5,04.4,0675.6,30.8
2021-08-13T10:20:00Z,00000200,00000000,0003.05,0002.29,0001.84,0000.16,-000.04,0000.28,0000.71,0000.47,0000.91,18.3,24.6,06.5,04.5,0675.6,30.8
2021-08-13T10:21:00Z,00000200,00000000,0003.08,0002.25,0001.28,0000.48,0000.50,-000.07,0000.67,0000.70,0000.47,18.3,24.6,06.6,04.5,0675.6,30.8
2021-08-13T10:22:00Z,00000200,00000000,0003.65,0002.55,0001.45,0000.38,0000.15,0000.18,0000.70,0000.40,0000.29,18.3,24.6,06.5,04.4,0675.6,30.8
2021-08-13T10:23:00Z,00000200,00000000,0003.82,0002.28,0001.64,0000.69,0000.37,0000.01,0000.49,0000.91,0000.89,18.3,24.6,06.5,04.4,0675.6,30.8
2021-08-13T10:24:00Z,00000200,00000000,0003.14,0002.36,0001.52,0000.84,0000.52,0000.50,0001.08,0000.75,0000.31,18.2,24.5,06.6,04.5,0675.6,30.8
2021-08-13T10:25:00Z,00000200,00000000,0002.72,0002.08,0000.98,0000.82,0000.34,0000.22,0000.87,0000.67,0000.53,18.2,24.5,06.6,04.5,0675.6,30.8
2021-08-13T10:26:00Z,00000200,00000000,0003.22,0002.08,0001.27,0000.12,0000.55,0000.48,0000.40,0000.37,0000.45,18.2,24.5,06.5,04.4,0675.6,30.8
2021-08-13T10:27:00Z,00000200,00000000,0003.03,0002.14,0001.55,0000.98,0000.45,0000.08,0000.96,0000.81,0000.70,18.2,24.5,06.6,04.5,0675.6,30.8
2021-08-13T10:28:00Z,00000200,00000000,0003.29,0002.29,0001.21,0000.61,-000.00,0000.67,0000.58,0000.86,0000.14,18.3,24.5,06.6,04.5,0675.6,30.8
2021-08-13T10:29:00Z,00000200,00000000,0003.60,0001.92,0001.65,0000.51,0000.07,0000.03,0001.09,0000.69,0001.15,18.3,24.6,06.6,04.5,0675.6,30.8
2021-08-13T10:30:00Z,00000200,00000000,0002.67,0002.15,0001.30,0000.59,0000.21,0000.10,0000.14,0000.49,-000.13,18.4,24.6,06.7,04.6,0675.6,30.8
2021-08-13T10:31:00Z,00000200,00000000,0003.41,0002.55,0001.40,0000.60,0000.18,0000.53,0000.96,0001.02,0000.71,18.4,24.6,06.5,04.5,0675.6,30.9
2021-08-13T10:32:00Z,00000200,00000000,0003.15,0002.38,0001.56,0001.07,0000.41,0000.49,0000.72,0000.32,0000.40,18.4,24.6,06.6,04.5,0675.6,30.8
2021-08-13T10:33:00Z,00000200,00000000,0003.18,0002.23,0001.63,0000.50,0000.27,0000.63,0000.82,0000.69,0000.54,18.4,24.6,06.5,04.5,0675.6,30.8
2021-08-13T10:34:00Z,00000200,00000000,0003.04,0002.38,0001.50,0000.86,0000.31,0000.69,0000.65,0000.46,0000.63,18.3,24.6,06.6,04.5,0675.6,30.8
2021-08-13T10:35:00Z,00000200,00000000,0003.01,0002.16,0001.50,0000.53,0000.41,0000.45,0000.49,0000.72,0000.51,18.3,24.6,06.6,04.5,0675.6,30.8
2021-08-13T10:36:00Z,00000200,00000000,0002.53,0002.36,0001.55,0000.82,0000.10,0000.49,0001.28,0000.97,0000.55,18.3,24.6,06.7,04.5,0675.6,30.8
2021-08-13T10:37:00Z,00000200,00000000,0003.15,0002.31,0001.40,0000.62,0000.41,0000.23,0000.11,0000.43,0000.28,18.3,24.5,06.7,04.6,0675.6,30.8
2021-08-13T10:38:00Z,00000200,00000000,0003.60,0002.27,0001.42,0000.65,0000.13,0000.60,0000.90,0000.74,0000.71,18.3,24.5,06.7,04.6,0675.6,30.8
2021-08-13T10:39:00Z,00000200,00000000,0002.63,0002.14,0001.50,0000.82,0000.26,0000.49,0000.75,0000.55,0000.24,18.3,24.5,06.7,04.6,0675.6,30.8
2021-08-13T10:40:00Z,00000200,00000000,0003.46,0002.11,0001.57,0000.66,0000.03,0000.54,0000.82,0000.92,0000.88,18.2,24.5,06.8,04.6,0675.6,30.8
2021-08-13T10:41:00Z,00000200,00000000,0003.54,0002.11,0001.76,0000.78,0000.25,0000.65,0000.68,0000.47,0000.61,18.2,24.5,06.8,04.6,0675.6,30.8
2021-08-13T10:42:00Z,00000200,00000000,0003.15,0002.11,0001.32,0000.64,0000.40,0000.25,0000.72,0000.73,0000.25,18.2,24.5,06.8,04.6,0675.5,30.8
2021-08-13T10:43:00Z,00000200,00000000,0002.63,0001.91,0001.40,0000.87,0000.25,0000.18,0000.89,0000.84,0000.82,18.3,24.5,06.8,04.7,0675.6,30.9
2021-08-13T10:44:00Z,00000200,00000000,0002.81,0002.54,0001.04,0000.73,0000.29,0000.45,0000.90,0000.80,0000.45,18.4,24.6,06.8,04.6,0675.6,30.9
2021-08-13T10:45:00Z,00000200,00000000,0002.72,0002.01,0001.26,0000.34,0000.50,0000.20,0000.90,0000.60,0000.64,18.4,24.6,06.8,04.7,0675.5,30.9
2021-08-13T10:46:00Z,00000200,00000000,0003.76,0002.49,0001.36,0000.57,0000.32,0000.45,0000.29,0000.69,0000.15,18.5,24.6,06.8,04.7,0675.5,30.9
2021-08-13T10:47:00Z,00000200,00000000,0003.39,0002.30,0001.47,0000.76,0000.30,0000.02,0000.77,0000.54,0000.69,18.5,24.6,06.8,04.7,0675.5,30.9
2021-08-13T10:48:00Z,00000200,00000000,0003.77,0002.59,0001.58,0000.75,0000.29,0000.48,0000.85,0000.44,0000.69,18.5,24.6,06.8,04.6,0675.5,30.9
2021-08-13T10:49:00Z,00000200,00000000,0003.36,0002.45,0001.30,0000.93,0000.43,0000.48,0001.07,0001.06,0000.42,18.4,24.6,06.9,04.7,0675.4,30.9
2021-08-13T10:50:00Z,00000200,00000000,0003.03,0002.43,0001.56,0000.58,0000.22,0000.26,0000.46,0000.24,0000.29,18.4,24.6,06.7,04.6,0675.5,30.8
2021-08-13T10:51:00Z,00000200,00000000,0002.75,0002.14,0001.19,0000.72,0000.19,0000.24,0000.69,0000.77,0000.62,18.4,24.6,06.9,04.7,0675.4,30.8
2021-08-13T10:52:00Z,00000200,00000000,0002.87,0002.15,0001.70,0000.57,0000.07,0000.25,0000.73,0000.68,0000.80,18.4,24.6,06.9,04.7,0675.4,30.8
2021-08-13T10:53:00Z,00000200,00000000,0002.78,0002.06,0001.27,0000.56,0000.22,0000.08,0000.61,0000.61,0000.42,18.4,24.6,06.9,04.7,0675.4,30.8
2021-08-13T10:54:00Z,00000200,00000000,0002.74,0002.32,0001.43,0000.71,0000.04,0000.27,0000.77,0000.59,0000.32,18.4,24.6,06.9,04.7,0675.4,30.8
2021-08-13T10:55:00Z,00000200,00000000,0002.28,0002.56,0001.22,0000.23,0000.13,0000.34,0000.67,0000.92,0000.62,18.3,24.5,06.9,04.7,0675.4,30.8
2021-08-13T10:56:00Z,00000200,00000000,0002.72,0002.32,0001.16,0000.55,0000.39,0000.29,0000.87,0000.83,0000.87,18.3,24.5,07.0,04.8,0675.4,30.8
2021-08-13T10:57:00Z,00000200,40000000,,,,,,,0000.59,0000.42,-000.05,18.4,24.5,06.7,04.6,0675.4,30.8
2021-08-13T10:58:00Z,00000200,60000000,,,,,,,-000.29,-000.32,-000.02,18.1,24.7,06.8,04.5,0674.4,30.8
2021-08-13T10:59:00Z,00000200,20000000,,,,,,,-000.33,0000.04,-000.10,18.2,24.8,06.7,04.5,0674.4,30.8
